New Orleans Lakefront, LA

3:03 AM CDT on March 25, 2017 (GMT -0500)
Lakefront

Weather History for KNEW - February, 2012

Change the Weather History Date:

Tuesday, February 7, 2012

  Actual Average Record
Temperature  
Mean Temperature 60 °F 55 °F  
Max Temperature 68 °F 64 °F 80 °F (1999)
Min Temperature 52 °F 47 °F 25 °F (1988)
Degree Days  
Heating Degree Days 5 10  
Month to date heating degree days 16 76  
Since 1 July heating degree days 603 932  
Cooling Degree Days 0 1  
Month to date cooling degree days 18 7  
Year to date cooling degree days 81 23  
Growing Degree Days 10 (Base 50)    
Moisture  
Dew Point 49 °F    
Average Humidity 63    
Maximum Humidity 80    
Minimum Humidity 45    
Precipitation  
Precipitation 0.00 in 0.20 in 1.09 in (2013)
Month to date precipitation 0.66 1.36  
Year to date precipitation 2.47 6.51  
Snow  
Snow 0.00 in - - ()
Month to date snowfall 0.0  
Since 1 July snowfall 0.0  
Snow Depth 0.00 in    
Sea Level Pressure  
Sea Level Pressure 30.16 in    
Wind  
Wind Speed 6 mph (North)    
Max Wind Speed 13 mph    
Max Gust Speed 30 mph    
Visibility 10 miles    
Events      
T = Trace of Precipitation, MM = Missing Value Source: NWS Daily Summary

Daily Weather History Graph

Daily Weather History Graph

Search for Another Location

Airport or City:

Trip Planner

Search our weather history database for the weather conditions in past years. The results will help you decide how hot, cold, wet, or windy it might be!

Date:

Astronomy

Feb. 07, 2012 Rise Set
Actual Time 6:46 AM CST 5:42 PM CST
Civil Twilight 6:22 AM CST 6:06 PM CST
Nautical Twilight 5:53 AM CST 6:35 PM CST
Astronomical Twilight 5:25 AM CST 7:03 PM CST
Moon 5:48 PM CST (2/7) 6:18 AM CST (2/7)
Length of Visible Light 11h 44m
Length of Day
10h 55m
Full, 100% of the Moon is Illuminated
Feb 7
Full
Feb 7
Full
Feb 14
Last Quarter
Feb 21
New
Feb 29
First Quarter

Hourly Weather History & Observations

Time (CST) Temp. Dew Point Humidity Pressure Visibility Wind Dir Wind Speed Gust Speed Precip Events Conditions
12:53 AM 57.0 °F 44.1 °F 62% 30.17 in 10.0 mi NE 13.8 mph - N/A   Clear
1:53 AM 55.9 °F 45.0 °F 67% 30.16 in 10.0 mi ENE 11.5 mph - N/A   Clear
2:53 AM 55.9 °F 46.0 °F 69% 30.15 in 10.0 mi NE 13.8 mph - N/A   Clear
3:53 AM 55.0 °F 45.0 °F 69% 30.14 in 10.0 mi NE 15.0 mph - N/A   Clear
4:53 AM 54.0 °F 45.0 °F 72% 30.14 in 10.0 mi NNE 16.1 mph - N/A   Clear
5:53 AM 53.1 °F 45.0 °F 74% 30.15 in 10.0 mi NE 15.0 mph - N/A   Clear
6:53 AM 53.1 °F 45.0 °F 74% 30.17 in 10.0 mi ENE 13.8 mph - N/A   Clear
7:53 AM 54.0 °F 45.0 °F 72% 30.18 in 10.0 mi NE 13.8 mph - N/A   Clear
8:53 AM 55.9 °F 45.0 °F 67% 30.19 in 10.0 mi ENE 10.4 mph - N/A   Clear
9:53 AM 59.0 °F 46.9 °F 64% 30.19 in 4.0 mi North - - N/A   Haze
10:53 AM 62.1 °F 46.9 °F 58% 30.17 in - North - - N/A   Clear
11:53 AM 64.0 °F 48.0 °F 56% 30.17 in 10.0 mi North - - N/A   Clear
12:53 PM 66.0 °F 50.0 °F 56% 30.14 in 10.0 mi North - - N/A   Clear
1:53 PM 64.9 °F 50.0 °F 58% 30.12 in 10.0 mi NW 9.2 mph - N/A   Clear
2:53 PM 64.9 °F 48.0 °F 54% 30.11 in 10.0 mi NW 5.8 mph - N/A   Clear
3:53 PM 64.0 °F 46.9 °F 54% 30.11 in 10.0 mi WNW 4.6 mph - N/A   Clear
4:53 PM 63.0 °F 50.0 °F 63% 30.12 in 10.0 mi West 6.9 mph - N/A   Clear
5:53 PM 62.1 °F 52.0 °F 70% 30.13 in 10.0 mi West 6.9 mph - N/A   Clear
6:53 PM 63.0 °F 53.1 °F 70% 30.14 in 10.0 mi WSW 4.6 mph - N/A   Clear
7:53 PM 63.0 °F 55.0 °F 75% 30.15 in 10.0 mi WNW 4.6 mph - N/A   Clear
8:53 PM 62.1 °F 55.9 °F 80% 30.16 in 10.0 mi NW 6.9 mph - N/A   Partly Cloudy
9:53 PM 62.1 °F 54.0 °F 75% 30.18 in 10.0 mi North 9.2 mph - N/A   Mostly Cloudy
10:53 PM 61.0 °F 55.0 °F 81% 30.18 in 10.0 mi North 6.9 mph - N/A   Clear
11:53 PM 61.0 °F 52.0 °F 72% 30.19 in 10.0 mi North 9.2 mph - N/A   Clear